Terminal Aerodrome Forecast
Issued by NWS

Home | Current Version | Previous Version | Text Only | Print | Product List | Glossary Off
Versions: 1 2 3 4 5 6 7 8 9 10 11 12 13 14 15 16 17 18 19 20 21 22 23 24 25 26 27 28 29 30 31 32 33

000
FTUS45 KGGW 241100
TAFGDV
TAF
KGDV 241126Z 2412/2512 02010KT P6SM -RA OVC005
     FM241600 31012KT 4SM -RA BR OVC005
     FM242100 28019G29KT 5SM -RA OVC015
     FM250200 29019G27KT P6SM VCSH OVC025
      AMD LTD TO CLD VIS AND WIND=

USA.gov is the U.S. government's official web portal to all federal, state and local government web resources and services.